Regional Weather Roundup
Issued by NWS Green Bay, WI

Home | Current Version | Previous Version | Graphics & Text | Print | Product List | Glossary Off
Versions: 1 2 3 4 5 6 7 8 9 10 11 12 13 14 15 16 17 18 19 20 21 22 23 24 25 26 27 28 29 30 31 32 33 34 35 36 37 38 39 40 41 42 43 44 45 46 47 48 49 50

000
ASUS43 KGRB 030111
RWRGRB

NORTH-CENTRAL AND NORTHEAST WISCONSIN REGIONAL WEATHER ROUNDUP
NATIONAL WEATHER SERVICE GREEN BAY WI
800 PM CDT WED SEP 02 2015

WIZ005-009-010>012-018-019-030200-
NORTH CENTRAL WISCONSIN

CITY           SKY/WX    TMP DP  RH WIND       PRES   REMARKS
IRONWOOD       MOCLDY    66  64  94 CALM      29.93S
MANITOWISH WTR DRIZZLE   65  65 100 CALM      29.98R
ARBOR VITAE    RAIN      67  65  94 NE5       29.98R
EAGLE RIVER    HVY RAIN  66  66 100 NE10      29.97R
LAND O LAKES   DRIZZLE   65  64  96 E3        30.00R
RHINELANDER    CLOUDY    69  67  93 VRB3      29.96R
PHILLIPS       CLOUDY    67  67  98 NE3       29.94S
ANTIGO         CLOUDY    68  67  99 N3        29.95R
TOMAHAWK       CLOUDY    68  67  95 CALM      29.96R
MERRILL        LGT RAIN  70  69  98 CALM      29.94R
$$

WIZ013-073-030200-
NORTHEAST WISCONSIN

CITY           SKY/WX    TMP DP  RH WIND       PRES   REMARKS
IRON MOUNTAIN  CLOUDY    69  67  93 NE5       29.93S
MARINETTE      MOCLDY    66  63  88 E7        29.92R
OCONTO         MOCLDY    66  66 100 NE5       29.92R
$$

WIZ017-030-035>037-045-030200-
CENTRAL WISCONSIN

CITY           SKY/WX    TMP DP  RH WIND       PRES   REMARKS
MEDFORD        LGT RAIN  68  67  98 N3        29.94R
WAUSAU         CLOUDY    70  67  90 E9        29.91R
MOSINEE        CLOUDY    70  70 100 E7        29.93R
MARSHFIELD     CLOUDY    72  66  81 E6        29.92R
WISC RAPIDS    CLOUDY    78  68  71 CALM      29.92R
STEVENS POINT  CLOUDY    71  68  89 NE5       29.93R
WAUPACA        MOCLDY    80  66  64 SW3       29.90S
SHAWANO        RAIN      71  66  84 E5        29.91S
CLINTONVILLE   LGT RAIN  72  66  83 E6        29.90R
WAUTOMA        MOCLDY    79  68  69 CALM      29.91R
$$

WIZ038-039-048-051-030200-
FOX VALLEY

CITY           SKY/WX    TMP DP  RH WIND       PRES   REMARKS
NWS GREEN BAY  PTCLDY    73  68  84 NE10      29.92R
APPLETON       MOCLDY    75  66  73 S5        29.90R
OSHKOSH        CLEAR     76  68  76 S5        29.90R
FOND DU LAC    CLEAR     76  68  76 S6        29.91R
$$

WIZ022-050-052-030200-
EAST CENTRAL WISCONSIN

CITY           SKY/WX    TMP DP  RH WIND       PRES   REMARKS
EPHRAIM        FAIR      65  64  94 E5        29.93R
STURGEON BAY   PTCLDY    66  63  88 E8        29.95R
MANITOWOC      CLEAR     67  64  90 MISG      29.91R
SHEBOYGAN      PTCLDY    78  69  73 S9        29.90F
$$

LMZ563-521-522-541>543-030200-
LAKESHORE

STATION/POSITION TIME  TEMP    WIND        PRES    VSBY  WAVE
                       AIR SEA DIR/SP/G                  HT/PER
                 (UTC) (F)     (DEG/KT/KT) (MB)    (MI)  (FT/S)
SHEBOYGAN LKSHOR 0100   72     190/ 10/ 11 1012.5S
KEWAUNEE LKSHORE 0000   59      30/  2/  3 1012.0F
ALGOMA MARINA    0044           80/ 11/ 14   N/A
NORTHPORT PIER   0000   67      40/  3/ 10 1013.9R
N MID LAKE BUOY  0050   68 66   80/  6/  8 1013.4S         1
S GREEN BAY BUOY 0000   68 67   40/ 10/ 14 1014.4F
SISTER BAY LKSHO 0019   68     110/  9/ 12   N/A
CHAMBERS ISLAND  0000   68      70/  9/ 15 1013.2F
MENOMINEE LKSHOR 0000   66      50/  9/ 10 1011.9F
$$


USA.gov is the U.S. government's official web portal to all federal, state and local government web resources and services.